Showing default

FLOCK 4G 32, 62643

Orbit data source: Space-Track

FLOCK 4G 32, 62643 is a payload satellite owned by Planet (US) in SSO that was launched on Tue, 14 Jan 2025 UTC via an FALCON 9 launch vehicle from the Air Force Western Test Range (AFWTR). Payload-class satellites include a variety of spacecraft equipped with specific instruments for various scientific and technological missions. These include communications satellites like Starlink; space stations such as the ISS; scientific satellites like the Hubble; Earth observation satellites from companies like Planet Labs, Umbra, and HawkEye 360; GPS; miniature CubeSats for education and research; and military/defense satellites.

Loading next visibility...
Identifier
62643, 2025-009AL
Orbit
SSO
Country
Flag of USUS
Related business
Manufacturer
Planet
Mission
Operational Commercial Imaging
Bus & Motor
CUBESAT 3U, Unknown motor
Mass
5.7 kg wet, 5.7 kg dry
Launch date (UTC)
2025-01-14 (9 months ago)
Launch vehicle
FALCON 9
Launch site
Air Force Western Test Range (AFWTR)
Object type
Payload
Rocket body
Debris
Shape & HBR
Box + 2 Pan, 1.0 m
Radar Cross Section
0.072 m², Medium (>0.1 m² and < 1m²)

Expand to show TLE details & history
Last TLE update: 14 hours ago

TLE from 14 hours ago
0 FLOCK 4G 32
1 62643U 25009AL  25300.64965029  .00050795  00000-0  18433-2 0  9995
2 62643  97.4134  19.2365 0001082 109.9067 250.2289 15.28149100 43433
Epoch: 2025-10-27T15:35Z
TLE epoch observation values (Epoch: 2025-10-27T15:35:29.785Z)
Latitude
-0.00001°
Longitude
109.11394°
Altitude
484.698 km
Speed
7.623 km/s
True Right ascension
01h 16m 56s
True Declination
0° 00' 00"
Sunlit
Object was in full shadow at epoch
Visualization orbit readout
Latitude
Unknown
Longitude
Unknown
Altitude
Unknown
Speed
Unknown
Apparent Right ascension
Unknown
Apparent Declination
Unknown
Sunlit
N/A
Visualization observer readout
Local Sidereal Time
01:21:39
Azimuth
Unknown
Elevation
Unknown
Doppler factor
Unknown
Orbital elements
Apogee altitude
479.043 km
Perigee altitude
477.559 km
Semi-major axis
6,856.438 km
Eccentricity
0.00011
Inclination
97.4134°
RAAN
19.2365°
Arg. of periapsis
109.9067°
True anomaly
250.21723°
Mean anomaly
250.2289°
Eccentric anomaly
250.22307°
Mean motion
3.82292 °/min
Orbital period
94.17 mins
BSTAR
0.0018433
Loading maneuver chart data...
Computing Atmospheric mass density...
Loading historical data...
Loading historical data...
Loading historical data...
Loading historical data...
Loading historical data...
Loading historical data...
Loading historical data...

Documentation

Showing up to 5 results
|